Preview of NWS' New Version of Forecast
This preview is not operational and should not be used for support decisions.

Regional Weather Roundup (RWR)

Issued by National Weather Service (NWS)

                            
000
ASCA42 TJSJ 180910
RWRPR 
PUERTO RICO/U.S. VIRGIN ISLANDS HOURLY WEATHER ROUNDUP
NATIONAL WEATHER SERVICE SAN JUAN PR
500 AM AST MON FEB 18 2019

PRZ001>002-007>008-010-181000-
PUERTO RICO
  
CITY           SKY/WX    TMP DP  RH WIND       PRES   REMARKS
SAN JUAN LMM   PTCLDY    73  70  88 CALM      30.07S                  
CEIBA          CLOUDY    73  72  94 E8        30.08S                  
$$

VIZ001>002-181000-
U.S. VIRGIN ISLANDS
  
CITY           SKY/WX    TMP DP  RH WIND       PRES   REMARKS
CHARLOTTE AMA  CLEAR     75  68  78 E7        30.07S                  
CHRISTIANSTED  CLEAR     75  68  78 E8        30.07S                  
$$

HOURLY WEATHER ROUNDUP FOR THE NEWS MEDIA
  
CITY           SKY/WX    TMP DP  RH WIND       PRES   REMARKS
ORLANDO        FAIR      68  64  87 S6        30.02S                  
NEW YORK       CLOUDY    34  34 100 N9        29.86  FOG     WCI  27  
NEWARK         LGT RAIN  34  33  96 E6        29.85F FOG     WCI  29  
CHICAGO        LGT SNOW  24  23  96 N7        30.02S FOG     WCI  16  
HARTFORD       LGT SNOW  29  29 100 NE3       29.92F FOG              
BOSTON         LGT SNOW  30  26  85 E6        29.93  FOG     WCI  24  
DALLAS         CLOUDY    42  27  55 NE7       30.19R                  
PHILADELPHIA   LGT RAIN  35  34  96 E8        29.80  WCI  29          
LOS ANGELES    PTCLDY    49  27  42 NW14      30.03R                  
WASHINGTON DC  LGT RAIN  37  35  92 NW8       29.80R WCI  31